Home   Weather   Weimar   Past weeks

Flag for Germany Past Weather in Weimar, Thuringia, Germany — Yesterday and Last 2 Weeks

Now
43 °F

Clear.


Feels Like: 37 °F
Forecast: 39 / 56 °F
Wind: 9 mph from Northeast

Location: Erfurt-Bindersleben

Current Time: May 1, 2017 at 1:06:08 am

Latest Report: May 1, 2017 at 12:50 am


Visibility: 10 mi

Pressure: 29.86 "Hg

Humidity: 76%

Dew Point: 36 °F

Location of WeimarLocation

Past Weather in Weimar — Graph

°F

Weimar Temperature Yesterday

Maximum temperature yesterday: 59 °F (at 5:20 pm)
Minimum temperature yesterday: 37 °F (at 5:20 am)
Average temperature yesterday: 48 °F

High & Low Weather Summary for the Past Weeks

 TemperatureHumidityPressure
High59 °F (Apr 30, 5:20 pm)100% (Apr 17, 12:20 am)30.57 "Hg (Apr 17, 12:20 am)
Low27 °F (Apr 20, 5:50 am)39% (Apr 24, 5:20 pm)29.62 "Hg (Apr 25, 4:20 am)
Average41 °F74%30.08 "Hg
* Reported Apr 15 11:20 pm — Apr 30 11:50 pm, Weimar, Weather by CustomWeather, © 2017

Note: Actual official high and low records may vary slightly from our data, if they occured in-between our weather recording intervals... More about our weather records

Advertising

Weimar Weather History for the Previous 24 Hours

Scroll right to see more
 ConditionsComfort  
Time TempWeatherWind HumidityBarometerVisibility
11:50 pm
Sun, Apr 30
46 °FPassing clouds.6 mph71%29.86 "HgN/A
11:20 pm46 °FPassing clouds.6 mph71%29.86 "HgN/A
10:50 pm48 °FPassing clouds.8 mph66%29.86 "HgN/A
10:20 pm48 °FClear.8 mph62%29.86 "Hg10 mi
9:50 pm50 °FClear.10 mph58%29.86 "Hg10 mi
9:20 pm50 °FClear.10 mph58%29.86 "Hg10 mi
8:50 pm52 °FPassing clouds.10 mph54%29.86 "HgN/A
8:20 pm54 °FSunny.13 mph51%29.86 "Hg10 mi
7:50 pm54 °FSunny.14 mph51%29.86 "Hg10 mi
7:20 pm55 °FPassing clouds.15 mph47%29.86 "HgN/A
6:50 pm57 °FPassing clouds.18 mph41%29.86 "HgN/A
6:20 pm57 °FPassing clouds.15 mph41%29.86 "HgN/A
5:50 pm57 °FPassing clouds.15 mph44%29.89 "HgN/A
5:20 pm59 °FPassing clouds.16 mph42%29.89 "HgN/A
4:20 pm57 °FPassing clouds.15 mph44%29.92 "HgN/A
3:50 pm57 °FPassing clouds.17 mph44%29.92 "HgN/A
3:20 pm57 °FPassing clouds.16 mph44%29.95 "HgN/A
2:50 pm55 °FPassing clouds.17 mph44%29.95 "HgN/A
2:20 pm55 °FPassing clouds.15 mph44%29.98 "HgN/A
1:50 pm55 °FPassing clouds.16 mph51%29.98 "HgN/A
1:20 pm54 °FPassing clouds.15 mph47%29.98 "HgN/A
12:50 pm54 °FPassing clouds.13 mph47%30.01 "HgN/A
12:20 pm55 °FPassing clouds.12 mph44%30.01 "HgN/A
11:50 am54 °FPassing clouds.14 mph51%30.04 "HgN/A
11:20 am54 °FPassing clouds.14 mph51%30.04 "HgN/A
10:50 am52 °FPassing clouds.12 mph50%30.04 "HgN/A
10:20 am52 °FPassing clouds.13 mph50%30.04 "HgN/A
9:50 am48 °FPassing clouds.12 mph58%30.07 "HgN/A
9:20 am46 °FSunny.3 mph71%30.07 "Hg10 mi
8:50 am43 °FSunny.3 mph81%30.07 "Hg10 mi
8:20 am43 °FPassing clouds.3 mph76%30.07 "HgN/A
7:50 am39 °FSunny.5 mph87%30.07 "Hg10 mi
7:20 am39 °FSunny.6 mph81%30.07 "Hg10 mi
6:50 am39 °FSunny.6 mph81%30.07 "Hg10 mi
6:20 am37 °FSunny.3 mph81%30.07 "Hg10 mi
5:50 am37 °FPassing clouds.3 mph81%30.07 "HgN/A
5:20 am37 °FClear.3 mph81%30.07 "Hg10 mi
4:50 am39 °FClear.3 mph75%30.07 "Hg10 mi
4:20 am39 °FClear.5 mph75%30.07 "Hg10 mi
3:50 am39 °FClear.3 mph75%30.07 "Hg10 mi
3:20 am41 °FClear.2 mph70%30.07 "Hg10 mi
2:50 am39 °FClear.1 mph75%30.07 "Hg10 mi
2:20 am39 °FClear.1 mph75%30.07 "Hg10 mi
1:50 am39 °FClear.2 mph70%30.07 "Hg10 mi
1:20 am39 °FClear.5 mph70%30.07 "Hg10 mi
Weather by CustomWeather, © 2017

See weather overviewHow to use our weather pages